Hourly Weather Golaszyny

Today, 15 May, Saturday

Time Temperature Precipitation Wind Pressure Humidity
00:00 +10°C° 0 mm 4 mps 742 mmHg 83%
01:00 +10°C° 0 mm 4 mps 742 mmHg 86%
02:00 +8°C° 0 mm 4 mps 743 mmHg 86%
03:00 +8°C° 0 mm 4 mps 743 mmHg 87%
04:00 +7°C° 0 mm 4 mps 743 mmHg 88%
05:00 +8°C° 0 mm 4 mps 743 mmHg 83%
06:00 +10°C° 0 mm 4 mps 744 mmHg 79%
07:00 +10°C° 0 mm 5 mps 744 mmHg 76%
08:00 +13°C° 0 mm 4 mps 744 mmHg 71%
09:00 +14°C° 0 mm 4 mps 744 mmHg 66%
10:00 +15°C° 0 mm 4 mps 744 mmHg 61%
11:00 +17°C° 0 mm 3 mps 744 mmHg 58%
12:00 +18°C° 0 mm 3 mps 743 mmHg 55%
13:00 +19°C° 0 mm 2 mps 743 mmHg 51%
14:00 +19°C° 0 mm 2 mps 743 mmHg 53%
15:00 +20°C° 0 mm 1 mps 743 mmHg 55%
16:00 +19°C° 0 mm 1 mps 743 mmHg 57%
17:00 +17°C° 0.1 mm 2 mps 743 mmHg 61%
18:00 +16°C° 0.1 mm 2 mps 742 mmHg 66%
19:00 +14°C° 0.1 mm 3 mps 742 mmHg 71%
20:00 +14°C° 0.2 mm 3 mps 742 mmHg 76%
21:00 +13°C° 0.2 mm 3 mps 742 mmHg 81%
22:00 +12°C° 0.2 mm 3 mps 742 mmHg 86%
23:00 +12°C° 0.2 mm 3 mps 742 mmHg 88%

Tomorrow, 16 May, Sunday

Time Temperature Precipitation Wind Pressure Humidity
00:00 +12°C° 0.2 mm 3 mps 742 mmHg 89%
01:00 +12°C° 0.2 mm 2 mps 742 mmHg 90%
02:00 +12°C° 0.1 mm 2 mps 742 mmHg 91%
03:00 +12°C° 0.1 mm 2 mps 742 mmHg 92%
04:00 +12°C° 0.1 mm 2 mps 741 mmHg 92%
05:00 +13°C° 0.2 mm 2 mps 741 mmHg 91%
06:00 +13°C° 0.2 mm 2 mps 742 mmHg 89%
07:00 +13°C° 0.2 mm 2 mps 742 mmHg 88%
08:00 +14°C° 0.9 mm 2 mps 742 mmHg 88%
09:00 +14°C° 0.9 mm 2 mps 742 mmHg 89%
10:00 +14°C° 0.9 mm 2 mps 742 mmHg 89%
11:00 +13°C° 0.6 mm 3 mps 742 mmHg 85%
12:00 +14°C° 0.6 mm 3 mps 741 mmHg 81%
13:00 +16°C° 0.6 mm 3 mps 741 mmHg 77%
14:00 +16°C° 0.5 mm 3 mps 741 mmHg 77%
15:00 +16°C° 0.5 mm 3 mps 741 mmHg 76%
16:00 +15°C° 0.5 mm 2 mps 741 mmHg 76%
17:00 +15°C° 0.2 mm 2 mps 741 mmHg 78%
18:00 +14°C° 0.2 mm 1 mps 741 mmHg 79%
19:00 +13°C° 0.2 mm 1 mps 741 mmHg 81%
20:00 +13°C° 0 mm 2 mps 741 mmHg 85%
21:00 +12°C° 0 mm 2 mps 741 mmHg 88%
22:00 +10°C° 0 mm 3 mps 741 mmHg 91%
23:00 +9°C° 0 mm 3 mps 741 mmHg 92%

Day after tomorrow, 17 May, Monday

Time Temperature Precipitation Wind Pressure Humidity
00:00 +9°C° 0 mm 3 mps 741 mmHg 93%
01:00 +8°C° 0 mm 3 mps 741 mmHg 94%
02:00 +8°C° 0 mm 3 mps 741 mmHg 94%
03:00 +8°C° 0 mm 3 mps 741 mmHg 94%
04:00 +8°C° 0 mm 3 mps 741 mmHg 94%
05:00 +9°C° 0.1 mm 3 mps 741 mmHg 92%
06:00 +10°C° 0.1 mm 2 mps 741 mmHg 91%
07:00 +12°C° 0.1 mm 2 mps 741 mmHg 89%
08:00 +12°C° 0.1 mm 3 mps 741 mmHg 86%
09:00 +13°C° 0.1 mm 4 mps 741 mmHg 82%
10:00 +14°C° 0.1 mm 4 mps 741 mmHg 79%
11:00 +13°C° 0.4 mm 4 mps 741 mmHg 81%
12:00 +13°C° 0.4 mm 5 mps 742 mmHg 84%
13:00 +12°C° 0.4 mm 5 mps 742 mmHg 86%
14:00 +13°C° 0.3 mm 4 mps 741 mmHg 85%
15:00 +13°C° 0.3 mm 4 mps 741 mmHg 84%
16:00 +13°C° 0.3 mm 3 mps 741 mmHg 83%
17:00 +13°C° 0.5 mm 3 mps 741 mmHg 85%
18:00 +12°C° 0.5 mm 3 mps 741 mmHg 86%
19:00 +13°C° 0.5 mm 2 mps 741 mmHg 88%
20:00 +11°C° 0.1 mm 3 mps 741 mmHg 90%
21:00 +10°C° 0.1 mm 3 mps 741 mmHg 92%
22:00 +9°C° 0.1 mm 3 mps 741 mmHg 94%
23:00 +9°C° 0 mm 3 mps 741 mmHg 94%

18 May, Tuesday

Time Temperature Precipitation Wind Pressure Humidity
00:00 +8°C° 0 mm 4 mps 741 mmHg 94%
01:00 +7°C° 0 mm 4 mps 741 mmHg 95%
02:00 +7°C° 0 mm 4 mps 741 mmHg 95%
03:00 +6°C° 0 mm 5 mps 741 mmHg 96%
04:00 +6°C° 0 mm 5 mps 741 mmHg 96%
05:00 +7°C° 0 mm 5 mps 742 mmHg 93%
06:00 +8°C° 0 mm 5 mps 742 mmHg 89%
07:00 +9°C° 0 mm 6 mps 742 mmHg 85%
08:00 +10°C° 0.2 mm 6 mps 742 mmHg 82%
09:00 +11°C° 0.2 mm 6 mps 742 mmHg 79%
10:00 +12°C° 0.2 mm 7 mps 742 mmHg 76%
11:00 +12°C° 0.4 mm 7 mps 742 mmHg 75%
12:00 +12°C° 0.4 mm 7 mps 742 mmHg 75%
13:00 +14°C° 0.4 mm 7 mps 742 mmHg 75%
14:00 +14°C° 0.3 mm 7 mps 742 mmHg 75%
15:00 +14°C° 0.3 mm 7 mps 743 mmHg 74%
16:00 +14°C° 0.3 mm 7 mps 743 mmHg 74%
17:00 +13°C° 0.2 mm 6 mps 743 mmHg 78%
18:00 +12°C° 0.2 mm 5 mps 743 mmHg 82%
19:00 +10°C° 0.2 mm 5 mps 744 mmHg 86%
20:00 +10°C° 0 mm 4 mps 744 mmHg 88%
21:00 +8°C° 0 mm 4 mps 744 mmHg 91%
22:00 +8°C° 0 mm 3 mps 744 mmHg 94%
23:00 +7°C° 0 mm 4 mps 745 mmHg 94%

19 May, Wednesday

Time Temperature Precipitation Wind Pressure Humidity
00:00 +6°C° 0 mm 4 mps 745 mmHg 95%
01:00 +6°C° 0 mm 4 mps 745 mmHg 95%
02:00 +6°C° 0 mm 4 mps 745 mmHg 96%
03:00 +5°C° 0 mm 4 mps 746 mmHg 96%
04:00 +5°C° 0 mm 4 mps 746 mmHg 97%
05:00 +6°C° 0 mm 4 mps 746 mmHg 92%
06:00 +8°C° 0 mm 5 mps 746 mmHg 88%
07:00 +9°C° 0 mm 5 mps 747 mmHg 84%
08:00 +10°C° 0.1 mm 5 mps 747 mmHg 80%
09:00 +10°C° 0.1 mm 6 mps 747 mmHg 77%
10:00 +11°C° 0.1 mm 6 mps 747 mmHg 74%
11:00 +11°C° 0.3 mm 6 mps 747 mmHg 71%
12:00 +13°C° 0.3 mm 6 mps 747 mmHg 69%
13:00 +13°C° 0.3 mm 6 mps 747 mmHg 66%
14:00 +14°C° 0.1 mm 6 mps 747 mmHg 63%
15:00 +14°C° 0.1 mm 5 mps 747 mmHg 59%
16:00 +14°C° 0.1 mm 5 mps 747 mmHg 56%
17:00 +13°C° 0 mm 4 mps 747 mmHg 62%
18:00 +12°C° 0 mm 4 mps 747 mmHg 69%
19:00 +10°C° 0 mm 3 mps 747 mmHg 75%
20:00 +9°C° 0 mm 3 mps 748 mmHg 79%
21:00 +8°C° 0 mm 3 mps 748 mmHg 82%
22:00 +7°C° 0 mm 3 mps 748 mmHg 86%
23:00 +7°C° 0 mm 3 mps 748 mmHg 88%

20 May, Thursday

Time Temperature Precipitation Wind Pressure Humidity
00:00 +7°C° 0 mm 3 mps 748 mmHg 90%
01:00 +5°C° 0 mm 3 mps 748 mmHg 92%
02:00 +5°C° 0 mm 4 mps 748 mmHg 92%
03:00 +5°C° 0 mm 4 mps 749 mmHg 93%
04:00 +5°C° 0 mm 4 mps 749 mmHg 93%
05:00 +7°C° 0 mm 4 mps 749 mmHg 89%
06:00 +8°C° 0 mm 5 mps 749 mmHg 85%
07:00 +9°C° 0 mm 5 mps 749 mmHg 82%
08:00 +10°C° 0.2 mm 6 mps 749 mmHg 78%
09:00 +10°C° 0.2 mm 6 mps 749 mmHg 74%
10:00 +11°C° 0.2 mm 6 mps 749 mmHg 70%
11:00 +13°C° 0.2 mm 6 mps 749 mmHg 66%
12:00 +14°C° 0.2 mm 6 mps 749 mmHg 62%
13:00 +14°C° 0.2 mm 6 mps 748 mmHg 58%
14:00 +14°C° 0.1 mm 6 mps 748 mmHg 57%
15:00 +15°C° 0.1 mm 5 mps 748 mmHg 57%
16:00 +15°C° 0.1 mm 5 mps 748 mmHg 56%
17:00 +14°C° 0.1 mm 4 mps 748 mmHg 64%
18:00 +12°C° 0.1 mm 4 mps 747 mmHg 71%
19:00 +11°C° 0.1 mm 3 mps 747 mmHg 79%
20:00 +11°C° 0 mm 3 mps 747 mmHg 81%
21:00 +10°C° 0 mm 3 mps 747 mmHg 83%
22:00 +9°C° 0 mm 3 mps 746 mmHg 85%
23:00 +9°C° 0 mm 3 mps 746 mmHg 85%
Show more